DW5735 Weather Reports


Display with metric or nautical units.
time (UTC)temp
F
wind
direction
speed
MPH
gust
MPH
rain 1hr
in
rain 24hr
in
rain mn
in
humidity
%
barometer
mb
20260902194603 68 34 0.0 0.0 0.00 0.04 0.04 65 1002.9
20260902194337 68 34 0.0 0.0 0.00 0.16 0.04 65 1004.4
20260902193850 68 21 0.0 0.0 0.00 0.16 0.04 66 1004.4
20260902193011 67 21 0.0 0.0 0.00 0.04 0.04 67 1003.0
20260902192833 68 18 0.0 0.0 0.00 0.16 0.04 68 1004.5
20260902192317 67 30 0.0 0.0 0.00 0.16 0.04 69 1004.6
20260902191844 68 29 0.0 0.0 0.00 0.16 0.04 69 1004.7
20260902191602 67 21 0.0 0.0 0.00 0.04 0.04 68 1003.3
20260902191318 68 21 0.0 0.0 0.00 0.16 0.04 69 1004.8
20260902190839 68 25 0.0 0.0 0.00 0.16 0.04 68 1004.8
20260902190332 68 23 0.0 0.0 0.00 0.16 0.04 68 1004.9
20260902190111 67 351 0.0 0.0 0.00 0.04 0.04 68 1003.4
20260902185828 68 352 0.0 0.0 0.00 0.16 0.04 69 1004.9
20260902185321 68 245 0.0 0.0 0.00 0.16 0.04 69 1004.9
20260902184831 67 248 0.0 0.0 0.00 0.16 0.04 71 1004.9
20260902184516 66 251 0.0 0.0 0.00 0.04 0.04 71 1003.5
20260902184340 67 251 0.0 0.0 0.00 0.16 0.04 70 1004.9
20260902183835 67 195 0.0 0.0 0.00 0.16 0.04 73 1004.9
20260902183328 66 208 0.0 4.0 0.00 0.16 0.04 74 1004.9
20260902183107 66 228 0.0 4.0 0.00 0.04 0.04 73 1003.5
20260902182837 66 215 1.0 4.0 0.00 0.16 0.04 73 1005.0
20260902182316 66 235 0.0 0.0 0.00 0.16 0.04 74 1004.9
20260902181821 66 229 0.0 0.0 0.00 0.16 0.04 72 1004.9
20260902181506 66 249 0.0 0.0 0.00 0.04 0.04 71 1003.6
20260902181329 66 188 0.0 0.0 0.00 0.16 0.04 71 1005.1
20260902180844 66 231 0.0 0.0 0.00 0.16 0.04 69 1005.2
20260902180334 66 288 0.0 0.0 0.00 0.16 0.04 70 1005.2
20260902175822 65 277 0.0 0.0 0.00 0.16 0.04 73 1005.3
20260902175325 65 286 0.0 0.0 0.00 0.16 0.04 73 1005.3
20260902174828 65 333 0.0 0.0 0.00 0.16 0.04 74 1005.4
20260902174554 65 11 0.0 0.0 0.00 0.04 0.04 74 1004.0
20260902174332 65 354 0.0 0.0 0.00 0.16 0.04 75 1005.4
20260902173827 65 20 0.0 0.0 0.00 0.16 0.04 69 1005.2
20260902173320 65 25 0.0 0.0 0.00 0.16 0.04 75 1005.1
20260902173058 65 20 0.0 0.0 0.00 0.04 0.04 75 1003.6
20260902172831 65 51 0.0 0.0 0.00 0.16 0.04 76 1005.3
20260902172323 65 98 0.0 0.0 0.00 0.16 0.04 77 1005.4
20260902171822 64 78 0.0 0.0 0.00 0.16 0.04 76 1005.0
20260902171604 63 94 0.0 0.0 0.00 0.04 0.04 75 1003.6
20260902171333 64 51 0.0 0.0 0.00 0.16 0.04 74 1005.2
20260902170830 63 271 0.0 0.0 0.00 0.16 0.04 74 1005.5
20260902170332 63 283 0.0 0.0 0.00 0.16 0.04 76 1005.6
20260902170130 63 257 0.0 0.0 0.00 0.04 0.04 77 1004.3
20260902165819 63 263 0.0 0.0 0.08 0.16 0.04 78 1005.9
20260902165317 63 75 0.0 0.0 0.08 0.16 0.04 79 1005.9
20260902164830 63 75 0.0 0.0 0.08 0.16 0.04 81 1005.9
20260902164616 62 75 0.0 0.0 0.02 0.04 0.04 81 1004.5
20260902164318 62 61 0.0 0.0 0.08 0.16 0.04 80 1005.8
20260902163821 62 330 0.0 0.0 0.08 0.16 0.04 79 1005.8
20260902163330 62 330 0.0 0.0 0.08 0.16 0.04 81 1005.7
20260902163103 62 282 0.0 1.0 0.02 0.04 0.04 83 1004.3
20260902162821 62 262 0.0 1.0 0.08 0.16 0.04 82 1005.6
20260902162331 62 146 0.0 5.0 0.08 0.16 0.04 81 1005.5
20260902161824 62 37 0.0 5.0 0.08 0.16 0.04 81 1005.3
20260902161502 62 20 0.0 5.0 0.03 0.04 0.04 83 1003.6
20260902161327 62 32 0.0 0.0 0.16 0.16 0.04 82 1004.9
20260902160836 62 21 0.0 0.0 0.16 0.16 0.04 82 1005.0
20260902160321 63 34 0.0 6.0 0.16 0.16 0.04 78 1004.9
20260902160109 62 79 0.0 8.0 0.03 0.03 0.03 78 1003.5
20260902155820 62 95 0.0 9.0 0.08 0.08 0.02 77 1004.8
20260902155328 62 96 6.0 9.0 0.08 0.08 0.02 79 1004.8
20260902154832 62 108 3.0 6.0 0.08 0.08 0.02 81 1004.6
20260902154327 62 108 0.0 7.0 0.08 0.08 0.02 81 1004.6
20260902153851 62 96 4.0 7.0 0.08 0.08 0.02 79 1004.6
20260902153333 63 76 0.0 3.0 0.08 0.08 0.02 77 1004.5
20260902153103 63 86 0.0 7.0 0.02 0.02 0.02 78 1003.2
20260902152819 64 72 0.0 16.0 0.08 0.08 0.02 76 1004.8
20260902152341 64 284 6.0 16.0 0.08 0.08 0.02 75 1005.2
20260902151834 65 239 6.0 17.0 0.08 0.08 0.02 76 1005.7
20260902151620 65 239 6.0 11.0 0.01 0.01 0.01 71 1004.5
20260902151332 65 243 4.0 8.0 0.00 0.00 0.00 67 1005.9
20260902150847 64 220 0.0 12.0 0.00 0.00 0.00 65 1006.5
20260902150333 64 174 0.0 0.0 0.00 0.00 0.00 69 1006.1
20260902150116 63 179 0.0 0.0 0.00 0.00 0.00 70 1004.3
20260902145816 64 268 0.0 0.0 0.00 0.00 0.00 69 1005.2
20260902145323 63 253 0.0 0.0 0.00 0.00 0.00 67 1004.7
20260902144827 63 44 0.0 0.0 0.00 0.00 0.00 68 1004.5
20260902144609 62 44 0.0 0.0 0.00 0.00 0.00 67 1003.0
20260902144335 62 44 0.0 0.0 0.00 0.00 0.00 67 1004.4
20260902143828 62 26 0.0 0.0 0.00 0.00 0.00 69 1004.4
20260902143323 62 99 0.0 0.0 0.00 0.00 0.00 67 1004.4
20260902143001 61 105 0.0 0.0 0.00 0.00 0.00 66 1003.0
20260902142827 62 129 0.0 0.0 0.00 0.00 0.00 65 1004.5
20260902142330 61 130 0.0 0.0 0.00 0.00 0.00 66 1004.6
20260902141834 61 130 0.0 0.0 0.00 0.00 0.00 66 1004.6
20260902141602 61 105 0.0 0.0 0.00 0.00 0.00 67 1003.2
20260902141357 61 104 0.0 0.0 0.00 0.00 0.00 67 1004.6
20260902140838 61 76 0.0 0.0 0.00 0.00 0.00 66 1004.6
20260902140357 61 146 0.0 0.0 0.00 0.00 0.00 67 1004.7
20260902140108 61 113 0.0 0.0 0.00 0.00 0.00 67 1003.3
20260902135331 61 91 0.0 0.0 0.00 0.00 0.00 67 1004.6
20260902134821 61 84 0.0 0.0 0.00 0.00 0.00 67 1004.7
20260902134544 61 60 0.0 0.0 0.00 0.00 0.00 67 1003.3
20260902134330 61 75 0.0 0.0 0.00 0.00 0.00 67 1004.7
20260902133821 61 56 0.0 0.0 0.00 0.00 0.00 68 1004.7
20260902133400 61 100 0.0 0.0 0.00 0.00 0.00 69 1004.7
20260902133100 60 82 0.0 0.0 0.00 0.00 0.00 70 1003.3
20260902132833 60 95 0.0 0.0 0.00 0.00 0.00 70 1004.6
20260902132338 60 79 0.0 0.0 0.00 0.00 0.00 72 1004.6
20260902131842 60 90 0.0 0.0 0.00 0.00 0.00 73 1004.7
20260902131600 60 74 0.0 0.0 0.00 0.00 0.00 73 1003.3
20260902131318 60 66 0.0 0.0 0.00 0.00 0.00 74 1004.8
20260902130835 61 11 0.0 0.0 0.00 0.00 0.00 75 1004.8
20260902130346 61 349 0.0 0.0 0.00 0.00 0.00 75 1004.8
20260902130106 61 75 0.0 0.0 0.00 0.00 0.00 73 1003.4
20260902125818 61 70 0.0 0.0 0.00 0.00 0.00 72 1004.9
20260902125350 62 52 0.0 0.0 0.00 0.00 0.00 71 1004.8
20260902124822 62 46 0.0 0.0 0.00 0.00 0.00 72 1004.8
20260902124613 62 101 0.0 0.0 0.00 0.00 0.00 71 1003.3
20260902124328 63 101 0.0 0.0 0.00 0.00 0.00 72 1004.7
20260902123832 63 101 0.0 0.0 0.00 0.00 0.00 68 1004.7
20260902123322 63 97 0.0 0.0 0.00 0.00 0.00 68 1004.8
20260902123101 63 65 0.0 0.0 0.00 0.00 0.00 69 1003.4
20260902122840 64 107 0.0 0.0 0.00 0.00 0.00 67 1004.7
20260902122323 64 107 0.0 0.0 0.00 0.00 0.00 67 1004.7
20260902121852 64 129 0.0 0.0 0.00 0.00 0.00 65 1004.8
20260902121603 63 129 0.0 0.0 0.00 0.00 0.00 65 1003.4
20260902121356 64 121 0.0 0.0 0.00 0.00 0.00 64 1004.8
20260902120843 63 125 0.0 0.0 0.00 0.00 0.00 64 1004.7
20260902120341 63 121 0.0 0.0 0.00 0.00 0.00 65 1004.6
20260902120130 63 121 0.0 0.0 0.00 0.00 0.00 65 1003.2
20260902115826 63 107 0.0 0.0 0.00 0.00 0.00 66 1004.5
20260902115337 63 79 0.0 0.0 0.00 0.00 0.00 67 1004.5
20260902114836 63 74 0.0 0.0 0.00 0.00 0.00 68 1004.4
20260902114600 62 58 0.0 0.0 0.00 0.00 0.00 68 1003.0
20260902114317 63 50 0.0 0.0 0.00 0.00 0.00 68 1004.5
20260902113828 63 89 0.0 0.0 0.00 0.00 0.00 69 1004.4
20260902113327 63 51 0.0 0.0 0.00 0.00 0.00 70 1004.5
20260902113112 63 46 0.0 0.0 0.00 0.00 0.00 70 1003.1
20260902112841 64 44 0.0 0.0 0.00 0.00 0.00 67 1004.4
20260902112336 64 86 0.0 0.0 0.00 0.00 0.00 67 1004.4
20260902111821 64 91 0.0 0.0 0.00 0.00 0.00 67 1004.5
20260902111603 64 86 0.0 0.0 0.00 0.00 0.00 68 1003.0
20260902111321 64 91 0.0 0.0 0.00 0.00 0.00 68 1004.4
20260902110818 65 81 0.0 0.0 0.00 0.00 0.00 67 1004.5
20260902110348 65 43 0.0 0.0 0.00 0.00 0.00 69 1004.6
20260902110158 64 91 0.0 0.0 0.00 0.00 0.00 68 1003.2
20260902105835 65 104 0.0 0.0 0.00 0.00 0.00 67 1004.6
20260902105321 65 97 0.0 0.0 0.00 0.00 0.00 67 1004.7
20260902104840 65 94 0.0 0.0 0.00 0.00 0.00 68 1004.8
20260902104554 64 80 0.0 0.0 0.00 0.00 0.00 68 1003.4
20260902104331 65 76 0.0 0.0 0.00 0.00 0.00 68 1004.8
20260902103839 65 40 0.0 0.0 0.00 0.00 0.00 67 1004.8
20260902103326 65 162 0.0 0.0 0.00 0.00 0.00 68 1004.8
20260902103100 64 152 0.0 0.0 0.00 0.00 0.00 67 1003.4
20260902102858 65 140 0.0 0.0 0.00 0.00 0.00 67 1004.8
20260902102339 65 50 0.0 0.0 0.00 0.00 0.00 67 1004.7
20260902101831 65 96 0.0 0.0 0.00 0.00 0.00 62 1004.7
20260902101332 65 164 0.0 0.0 0.00 0.00 0.00 62 1004.7
20260902100817 65 139 0.0 0.0 0.00 0.00 0.00 63 1004.8
20260902100351 65 106 0.0 0.0 0.00 0.00 0.00 64 1004.7
20260902100114 65 105 0.0 0.0 0.00 0.00 0.00 63 1003.2
20260902095838 65 107 0.0 0.0 0.00 0.00 0.00 64 1004.7
20260902094822 66 74 0.0 0.0 0.00 0.00 0.00 64 1004.6
20260902094602 66 67 0.0 0.0 0.00 0.00 0.00 65 1003.2
20260902094321 68 21 0.0 0.0 0.00 0.00 0.00 61 1004.6
20260902093828 69 40 0.0 0.0 0.00 0.00 0.00 57 1004.6
20260902093337 69 76 0.0 0.0 0.00 0.00 0.00 55 1004.6
20260902093137 69 76 0.0 0.0 0.00 0.00 0.00 57 1003.3
20260902092819 69 82 0.0 0.0 0.00 0.00 0.00 55 1004.7
20260902092321 69 285 0.0 0.0 0.00 0.00 0.00 56 1004.7
20260902091831 68 278 0.0 0.0 0.00 0.00 0.00 57 1004.8
20260902091629 67 249 0.0 0.0 0.00 0.00 0.00 58 1003.4
20260902091333 68 103 0.0 0.0 0.00 0.00 0.00 59 1004.9
20260902090827 68 88 0.0 0.0 0.00 0.00 0.00 58 1004.9
20260902090328 69 86 0.0 0.0 0.00 0.00 0.00 58 1005.1
20260902090101 69 154 0.0 0.0 0.00 0.00 0.00 57 1003.7
20260902085858 69 158 0.0 0.0 0.00 0.00 0.00 57 1005.2
20260902085318 69 130 0.0 0.0 0.00 0.00 0.00 56 1005.0
20260902084818 70 153 0.0 0.0 0.00 0.00 0.00 56 1005.0
20260902084642 69 142 0.0 0.0 0.00 0.00 0.00 56 1003.7
20260902084318 70 143 0.0 0.0 0.00 0.00 0.00 56 1005.1
20260902083843 70 167 0.0 0.0 0.00 0.00 0.00 55 1005.2
20260902083319 70 209 0.0 0.0 0.00 0.00 0.00 56 1005.3
20260902083106 70 200 0.0 0.0 0.00 0.00 0.00 55 1003.8
20260902082829 70 226 0.0 0.0 0.00 0.00 0.00 55 1005.2
20260902082324 70 163 0.0 0.0 0.00 0.00 0.00 55 1005.1
20260902081837 70 195 0.0 0.0 0.00 0.00 0.00 55 1005.0
20260902081618 70 202 0.0 0.0 0.00 0.00 0.00 56 1003.7
20260902081327 71 117 0.0 1.0 0.00 0.00 0.00 57 1005.1
20260902080829 71 228 0.0 1.0 0.00 0.00 0.00 59 1005.2
20260902080318 71 257 0.0 1.0 0.00 0.00 0.00 59 1005.1
20260902075818 71 200 0.0 1.0 0.00 0.00 0.00 53 1004.9
20260902075326 71 113 0.0 1.0 0.00 0.00 0.00 53 1004.8
20260902074832 71 161 0.0 0.0 0.00 0.00 0.00 53 1004.8
20260902074604 71 110 0.0 0.0 0.00 0.00 0.00 53 1003.4
20260902074347 72 158 0.0 0.0 0.00 0.00 0.00 53 1004.7
20260902073820 72 152 0.0 0.0 0.00 0.00 0.00 52 1004.7
20260902073327 72 158 0.0 0.0 0.00 0.00 0.00 53 1004.7
20260902073106 71 169 0.0 0.0 0.00 0.00 0.00 52 1003.3
20260902072837 72 166 0.0 0.0 0.00 0.00 0.00 52 1004.7
20260902072343 72 198 0.0 0.0 0.00 0.00 0.00 52 1004.7
20260902071829 72 191 0.0 0.0 0.00 0.00 0.00 51 1004.7
20260902071353 72 186 0.0 1.0 0.00 0.00 0.00 51 1004.6
20260902070832 72 215 0.0 1.0 0.00 0.00 0.00 51 1004.7
20260902070340 72 222 0.0 0.0 0.00 0.00 0.00 52 1004.6
20260902070109 71 191 0.0 0.0 0.00 0.00 0.00 52 1003.4
20260902065822 71 152 0.0 0.0 0.00 0.00 0.00 54 1004.7
20260902065325 70 208 0.0 0.0 0.00 0.00 0.00 57 1004.7
20260902064831 70 164 0.0 0.0 0.00 0.00 0.00 59 1004.7
20260902064619 70 143 0.0 0.0 0.00 0.00 0.00 62 1003.4
20260902064338 70 260 0.0 0.0 0.00 0.00 0.00 68 1004.6
20260902063846 70 255 0.0 0.0 0.00 0.00 0.00 55 1004.5
20260902063328 70 193 0.0 0.0 0.00 0.00 0.00 53 1004.3
20260902063156 69 108 0.0 0.0 0.00 0.00 0.00 54 1002.9
20260902062826 70 107 0.0 0.0 0.00 0.00 0.00 55 1004.2
20260902062322 70 106 0.0 0.0 0.00 0.00 0.00 56 1004.1
20260902061825 70 150 0.0 0.0 0.00 0.00 0.00 56 1004.0
20260902061610 70 97 0.0 0.0 0.00 0.00 0.00 56 1002.7
20260902061330 70 95 0.0 0.0 0.00 0.00 0.00 54 1004.0
20260902060821 71 94 0.0 0.0 0.00 0.00 0.00 52 1003.8
20260902060335 71 158 0.0 0.0 0.00 0.00 0.00 53 1003.8
20260902055819 71 107 0.0 0.0 0.00 0.00 0.00 50 1003.7
20260902055319 71 166 0.0 0.0 0.00 0.00 0.00 54 1003.7
20260902054830 71 107 0.0 0.0 0.00 0.00 0.00 59 1003.6
20260902054336 72 75 0.0 0.0 0.00 0.00 0.00 56 1003.6
20260902053816 72 103 0.0 0.0 0.00 0.00 0.00 49 1003.5
20260902053342 73 108 0.0 0.0 0.00 0.00 0.00 48 1003.4
20260902053054 72 107 0.0 0.0 0.00 0.00 0.00 49 1002.1
20260902052838 73 115 0.0 0.0 0.00 0.00 0.00 47 1003.5
20260902052338 73 167 0.0 0.0 0.00 0.00 0.00 49 1003.5
20260902051817 73 124 0.0 0.0 0.00 0.00 0.00 53 1003.4
20260902051615 72 169 0.0 0.0 0.00 0.00 0.00 54 1002.1
20260902051326 73 36 0.0 0.0 0.00 0.00 0.00 54 1003.4
20260902050833 74 19 0.0 0.0 0.00 0.00 0.00 61 1003.3
20260902050334 75 19 0.0 0.0 0.00 0.00 0.00 59 1003.4
20260902050111 75 136 0.0 0.0 0.00 0.00 0.00 45 1002.0
20260902045823 76 146 0.0 0.0 0.00 0.00 0.00 41 1003.3
20260902045323 76 160 0.0 0.0 0.00 0.00 0.00 41 1003.3
20260902044827 75 169 0.0 0.0 0.00 0.00 0.00 42 1003.2
20260902044512 75 208 0.0 0.0 0.00 0.00 0.00 46 1001.9
20260902044337 76 211 0.0 0.0 0.00 0.00 0.00 46 1003.2
20260902043837 76 143 0.0 0.0 0.00 0.00 0.00 41 1003.1
20260902043346 76 140 0.0 1.0 0.00 0.00 0.00 41 1003.1
20260902043112 75 165 0.0 1.0 0.00 0.00 0.00 41 1001.8
20260902042827 74 131 0.0 1.0 0.00 0.00 0.00 43 1003.1
20260902042324 72 155 0.0 0.0 0.00 0.00 0.00 46 1003.0
20260902041834 72 94 0.0 0.0 0.00 0.00 0.00 53 1002.9
20260902041602 72 92 0.0 0.0 0.00 0.00 0.00 56 1001.6
20260902041333 73 91 0.0 0.0 0.00 0.00 0.00 56 1002.8
20260902040843 73 86 0.0 0.0 0.00 0.00 0.00 59 1002.9
20260902040326 73 27 0.0 0.0 0.00 0.00 0.00 55 1002.8
20260902040100 73 27 0.0 0.0 0.00 0.00 0.00 56 1001.5
20260902035835 74 31 0.0 0.0 0.00 0.00 0.00 55 1002.7
20260902035319 74 111 0.0 0.0 0.00 0.00 0.00 48 1002.6
20260902034840 74 223 0.0 0.0 0.00 0.00 0.00 51 1002.5
20260902034515 74 101 0.0 0.0 0.00 0.00 0.00 48 1001.2
20260902034339 74 101 0.0 0.0 0.00 0.00 0.00 48 1002.4
20260902033834 74 110 0.0 0.0 0.00 0.00 0.00 51 1002.4
20260902033328 74 122 0.0 0.0 0.00 0.00 0.00 52 1002.4
20260902033104 74 111 0.0 0.0 0.00 0.00 0.00 53 1001.1
20260902032831 75 135 0.0 0.0 0.00 0.00 0.00 54 1002.4
20260902032348 75 246 0.0 0.0 0.00 0.00 0.00 50 1002.4
20260902031834 75 246 0.0 0.0 0.00 0.00 0.00 57 1002.4
20260902031522 75 242 0.0 0.0 0.00 0.00 0.00 47 1001.0
20260902031345 76 241 0.0 0.0 0.00 0.00 0.00 47 1002.4
20260902030846 75 246 0.0 0.0 0.00 0.00 0.00 48 1002.4
20260902030332 75 194 0.0 0.0 0.00 0.00 0.00 47 1002.3
20260902030111 75 201 0.0 0.0 0.00 0.00 0.00 47 1001.0
20260902025826 75 165 0.0 0.0 0.00 0.00 0.00 52 1002.2
20260902025328 76 257 0.0 0.0 0.00 0.00 0.00 48 1002.2
20260902024838 76 113 0.0 0.0 0.00 0.00 0.00 49 1002.1
20260902024612 76 113 0.0 0.0 0.00 0.00 0.00 49 1000.7
20260902024347 77 113 0.0 0.0 0.00 0.00 0.00 46 1002.1
20260902023840 77 115 0.0 0.0 0.00 0.00 0.00 45 1002.0
20260902023327 78 124 0.0 0.0 0.00 0.00 0.00 45 1002.1
20260902023008 77 155 0.0 0.0 0.00 0.00 0.00 45 1000.8
20260902022833 78 160 0.0 1.0 0.00 0.00 0.00 45 1002.1
20260902022334 78 127 0.0 1.0 0.00 0.00 0.00 43 1002.1
20260902021818 77 160 0.0 0.0 0.00 0.00 0.00 43 1002.1
20260902021649 77 148 0.0 0.0 0.00 0.00 0.00 44 1000.8
20260902021325 77 85 0.0 0.0 0.00 0.00 0.00 45 1002.2
20260902020823 76 85 0.0 0.0 0.00 0.00 0.00 47 1002.3
20260902020328 75 79 0.0 0.0 0.00 0.00 0.00 52 1002.4
20260902020017 75 87 0.0 0.0 0.00 0.00 0.00 53 1001.0
20260902015835 75 97 0.0 0.0 0.00 0.00 0.00 55 1002.3
20260902015339 75 141 0.0 0.0 0.00 0.00 0.00 55 1002.4
20260902014837 75 143 0.0 0.0 0.00 0.00 0.00 56 1002.3
20260902014603 74 151 0.0 0.0 0.00 0.00 0.00 58 1001.1
20260902014345 75 118 0.0 0.0 0.00 0.00 0.00 59 1002.4
20260902013835 75 121 0.0 0.0 0.00 0.00 0.00 63 1002.5
20260902013405 75 251 0.0 0.0 0.00 0.00 0.00 59 1002.6
20260902013102 75 280 0.0 0.0 0.00 0.00 0.00 58 1001.4
20260902012840 75 270 0.0 1.0 0.00 0.00 0.00 57 1002.8
20260902012346 75 239 0.0 1.0 0.00 0.00 0.00 59 1002.8
20260902011825 75 214 0.0 8.0 0.00 0.00 0.00 59 1002.8
20260902011508 74 286 0.0 15.0 0.00 0.00 0.00 60 1001.6
20260902011332 75 158 3.0 22.0 0.00 0.00 0.00 59 1002.8
20260902010856 75 210 10.0 22.0 0.00 0.00 0.00 65 1002.5
20260902010320 74 240 0.0 5.0 0.00 0.00 0.00 61 1002.3
20260902010105 74 160 0.0 0.0 0.00 0.00 0.00 66 1001.0
20260902005820 74 263 0.0 0.0 0.00 0.00 0.00 65 1002.5
20260902005322 75 231 0.0 0.0 0.00 0.00 0.00 59 1002.6
20260902004848 75 256 0.0 1.0 0.00 0.00 0.00 61 1002.7
20260902004608 75 231 0.0 1.0 0.00 0.00 0.00 62 1001.3
20260902004328 75 236 0.0 0.0 0.00 0.00 0.00 61 1002.6
20260902003829 75 259 0.0 0.0 0.00 0.00 0.00 67 1002.2
20260902003339 76 259 0.0 0.0 0.00 0.00 0.00 61 1002.0
20260902003107 75 266 0.0 0.0 0.00 0.00 0.00 59 1000.5
20260902002853 75 215 0.0 0.0 0.00 0.00 0.00 57 1001.8
20260902002343 75 251 0.0 0.0 0.00 0.00 0.00 58 1002.0
20260902001831 75 251 0.0 0.0 0.00 0.00 0.00 56 1001.8
20260902001647 75 198 0.0 0.0 0.00 0.00 0.00 53 1000.5
20260902001329 75 198 0.0 0.0 0.00 0.00 0.00 56 1001.8
20260902000829 75 236 0.0 1.0 0.00 0.00 0.00 69 1001.9
20260902000331 76 266 0.0 1.0 0.00 0.00 0.00 63 1001.9
20260901235837 78 264 0.0 0.0 0.00 0.00 0.00 52 1001.9
20260901235322 77 263 0.0 0.0 0.00 0.00 0.00 52 1001.9
20260901234832 77 242 0.0 0.0 0.00 0.00 0.00 53 1002.1
20260901234504 75 71 0.0 0.0 0.00 0.00 0.00 50 1000.7
20260901234326 76 11 0.0 0.0 0.00 0.00 0.00 52 1002.0
20260901233828 75 11 0.0 0.0 0.00 0.00 0.00 53 1002.0
20260901233328 75 9 0.0 0.0 0.00 0.00 0.00 58 1002.0
20260901233053 74 260 0.0 0.0 0.00 0.00 0.00 62 1000.7
20260901232838 74 260 0.0 0.0 0.00 0.00 0.00 65 1002.2
20260901232329 74 226 0.0 0.0 0.00 0.00 0.00 66 1002.3
20260901231824 75 281 0.0 0.0 0.00 0.00 0.00 63 1002.2
20260901231555 74 287 0.0 0.0 0.00 0.00 0.00 61 1000.8
20260901231325 75 329 0.0 0.0 0.00 0.00 0.00 64 1002.2
20260901230849 75 231 0.0 0.0 0.00 0.00 0.00 60 1002.2
20260901230320 75 264 0.0 0.0 0.00 0.00 0.00 61 1002.3
20260901230104 74 242 0.0 0.0 0.00 0.00 0.00 58 1000.9
20260901225839 74 231 0.0 0.0 0.00 0.00 0.00 60 1002.3
20260901225341 74 239 0.0 0.0 0.00 0.00 0.00 60 1002.4
20260901224844 74 236 0.0 0.0 0.00 0.00 0.00 58 1002.4
20260901224650 73 256 0.0 0.0 0.00 0.00 0.00 58 1001.1
20260901224341 74 240 0.0 0.0 0.00 0.00 0.00 59 1002.5
20260901223826 73 229 0.0 1.0 0.00 0.00 0.00 61 1002.7
20260901223319 74 239 0.0 1.0 0.00 0.00 0.00 64 1002.8
20260901223103 73 232 0.0 1.0 0.00 0.00 0.00 65 1001.5
20260901222827 74 217 0.0 1.0 0.00 0.00 0.00 66 1003.0
20260901222327 74 242 0.0 1.0 0.00 0.00 0.00 66 1003.0
20260901221832 74 235 0.0 1.0 0.00 0.00 0.00 64 1003.2
20260901221511 74 236 0.0 2.0 0.00 0.00 0.00 63 1002.0
20260901221333 74 236 0.0 6.0 0.00 0.00 0.00 63 1003.4
20260901220843 74 251 0.0 6.0 0.00 0.00 0.00 59 1003.4
20260901220339 73 226 4.0 8.0 0.00 0.00 0.00 57 1003.4
20260901215822 73 246 8.0 9.0 0.00 0.00 0.00 65 1003.5
20260901215326 73 248 3.0 7.0 0.00 0.00 0.00 68 1003.5
20260901214857 73 232 4.0 7.0 0.00 0.00 0.00 68 1003.7
20260901214610 73 243 4.0 7.0 0.00 0.00 0.00 68 1002.4
20260901214355 73 228 0.0 7.0 0.00 0.00 0.00 68 1003.8
20260901213327 73 231 4.0 7.0 0.00 0.00 0.00 70 1003.9
20260901213115 72 243 5.0 7.0 0.00 0.00 0.00 70 1002.6
20260901212831 73 250 5.0 7.0 0.00 0.00 0.00 68 1004.0
20260901212325 73 191 3.0 7.0 0.00 0.00 0.00 71 1004.1
20260901211832 73 231 4.0 7.0 0.00 0.00 0.00 68 1004.1
20260901211558 72 231 3.0 7.0 0.00 0.00 0.00 68 1002.8
20260901211335 73 236 4.0 7.0 0.00 0.00 0.00 67 1004.2
20260901210841 73 231 4.0 6.0 0.00 0.00 0.00 67 1004.2
20260901210322 72 231 3.0 7.0 0.00 0.00 0.00 68 1004.3
20260901210110 72 231 3.0 7.0 0.00 0.00 0.00 68 1003.0
20260901205834 72 216 3.0 6.0 0.00 0.00 0.00 70 1004.4
20260901205316 72 248 4.0 6.0 0.00 0.00 0.00 70 1004.5
20260901204858 72 226 0.0 6.0 0.00 0.00 0.00 68 1004.5
20260901204603 72 255 4.0 6.0 0.00 0.00 0.00 68 1003.3
20260901204326 72 228 4.0 6.0 0.00 0.00 0.00 69 1004.6
20260901203823 72 246 0.0 6.0 0.00 0.00 0.00 67 1004.6
20260901203340 72 242 0.0 0.0 0.00 0.00 0.00 67 1004.6
20260901203131 72 242 0.0 0.0 0.00 0.00 0.00 63 1003.4
20260901202824 72 242 0.0 0.0 0.00 0.00 0.00 65 1004.6
20260901202347 72 208 0.0 1.0 0.00 0.00 0.00 65 1004.8
20260901201828 72 226 0.0 1.0 0.00 0.00 0.00 63 1004.8
20260901201605 71 249 0.0 4.0 0.00 0.00 0.00 63 1003.6
20260901201321 72 222 0.0 4.0 0.00 0.00 0.00 64 1004.9
20260901200830 72 231 0.0 1.0 0.00 0.00 0.00 68 1004.9
20260901200345 71 242 0.0 1.0 0.00 0.00 0.00 63 1005.1
20260901200053 71 232 0.0 1.0 0.00 0.00 0.00 64 1003.9
20260901195833 71 246 0.0 1.0 0.00 0.00 0.00 64 1005.2
20260901195318 71 231 0.0 0.0 0.00 0.00 0.00 66 1005.3
20260901194828 71 251 0.0 1.0 0.00 0.00 0.00 65 1005.4